Weather History for Monument Pass, CO

Change the Weather History Date:

Wednesday, March 13, 2013

  Actual Average (KAPA) Record (KAPA)
Temperature  
Mean Temperature 42 °F -  
Max Temperature 57 °F 50 °F 73 °F (2003)
Min Temperature 28 °F 25 °F 15 °F (1997)
Degree Days  
Heating Degree Days 22    
Moisture  
Dew Point 23 °F    
Average Humidity 50    
Maximum Humidity 93    
Minimum Humidity 25    
Precipitation  
Precipitation 0.00 in - - ()
Sea Level Pressure  
Sea Level Pressure 30.26 in    
Wind  
Wind Speed 8 mph (SW)    
Max Wind Speed 13 mph    
Max Gust Speed -    
Visibility 10 miles    
Events      
Averages and records for this station are not official NWS values.
T = Trace of Precipitation, MM = Missing Value Source: NWS Daily Summary

Daily Weather History Graph

Daily Weather History Graph

Search for Another Location

Airport:

Trip Planner

Search our weather history database for the weather conditions in past years. The results will help you decide how hot, cold, wet, or windy it might be!

Date:

Astronomy

Mar. 13, 2013 Rise Set
Actual Time 7:12 AM MDT 7:03 PM MDT
Civil Twilight 6:45 AM MDT 7:30 PM MDT
Nautical Twilight 6:14 AM MDT 8:01 PM MDT
Astronomical Twilight 5:43 AM MDT 8:33 PM MDT
Moon 7:54 AM MDT (3/13) 9:21 PM MDT (3/13)
Length of Visible Light 12h 44m
Length of Day
11h 51m
Waxing Crescent, 4% of the Moon is Illuminated
Mar 13
Waxing Crescent
Mar 19
First Quarter
Mar 27
Full
Apr 2
Last Quarter
Apr 10
New

Hourly Weather History & Observations

Time (MDT) Temp. Windchill Dew Point Humidity Pressure Visibility Wind Dir Wind Speed Gust Speed Precip Events Conditions
12:14 AM 28.4 °F 19.1 °F 26.6 °F 93% 30.21 in 10.0 mi SSW 10.4 mph - N/A   Clear
12:34 AM 28.4 °F 19.1 °F 26.6 °F 93% 30.22 in 10.0 mi SSW 10.4 mph - N/A   Clear
12:54 AM 30.2 °F 20.2 °F 24.8 °F 80% 30.21 in 10.0 mi SW 12.7 mph - N/A   Clear
1:13 AM 30.2 °F 22.6 °F 24.8 °F 80% 30.21 in 10.0 mi SSW 8.1 mph - N/A   Clear
1:34 AM 32.0 °F 23.6 °F 24.8 °F 75% 30.22 in 10.0 mi SSW 10.4 mph - N/A   Clear
1:54 AM 32.0 °F 23.0 °F 23.0 °F 69% 30.22 in 10.0 mi SW 11.5 mph - N/A   Clear
2:14 AM 32.0 °F 23.6 °F 23.0 °F 69% 30.22 in 10.0 mi SW 10.4 mph - N/A   Clear
2:54 AM 32.0 °F 23.0 °F 23.0 °F 69% 30.21 in 10.0 mi SW 11.5 mph - N/A   Clear
3:14 AM 32.0 °F 23.6 °F 21.2 °F 64% 30.21 in 10.0 mi SW 10.4 mph - N/A   Clear
3:34 AM 33.8 °F 24.8 °F 21.2 °F 60% 30.20 in 10.0 mi SW 12.7 mph - N/A   Clear
3:54 AM 33.8 °F 25.8 °F 21.2 °F 60% 30.20 in 10.0 mi SW 10.4 mph - N/A   Clear
4:13 AM 32.0 °F 23.0 °F 21.2 °F 64% 30.19 in 10.0 mi SW 11.5 mph - N/A   Clear
4:34 AM 32.0 °F 23.6 °F 21.2 °F 64% 30.19 in 10.0 mi SW 10.4 mph - N/A   Clear
4:54 AM 33.8 °F 25.8 °F 21.2 °F 60% 30.19 in 10.0 mi SW 10.4 mph - N/A   Clear
5:14 AM 33.8 °F 26.4 °F 21.2 °F 60% 30.20 in 10.0 mi WSW 9.2 mph - N/A   Clear
5:34 AM 33.8 °F 27.0 °F 21.2 °F 60% 30.21 in 10.0 mi WSW 8.1 mph - N/A   Clear
5:53 AM 33.8 °F 27.7 °F 19.4 °F 56% 30.22 in 10.0 mi SW 6.9 mph - N/A   Clear
6:13 AM 32.0 °F 24.8 °F 19.4 °F 60% 30.21 in 10.0 mi WSW 8.1 mph - N/A   Clear
6:34 AM 33.8 °F 28.6 °F 19.4 °F 56% 30.22 in 10.0 mi SW 5.8 mph - N/A   Clear
6:54 AM 32.0 °F 26.4 °F 19.4 °F 60% 30.23 in 10.0 mi SW 5.8 mph - N/A   Clear
7:14 AM 33.8 °F 27.7 °F 19.4 °F 56% 30.23 in 10.0 mi SW 6.9 mph - N/A   Clear
7:34 AM 35.6 °F 29.9 °F 19.4 °F 52% 30.23 in 10.0 mi SW 6.9 mph - N/A   Clear
7:54 AM 33.8 °F 27.7 °F 21.2 °F 60% 30.24 in 10.0 mi SSW 6.9 mph - N/A   Clear
8:14 AM 33.8 °F 28.6 °F 21.2 °F 60% 30.25 in 10.0 mi SSW 5.8 mph - N/A   Clear
8:34 AM 37.4 °F 32.1 °F 21.2 °F 52% 30.25 in 10.0 mi SW 6.9 mph - N/A   Clear
8:54 AM 39.2 °F 34.2 °F 23.0 °F 52% 30.26 in 10.0 mi SW 6.9 mph - N/A   Clear
9:14 AM 41.0 °F 39.0 °F 23.0 °F 49% 30.27 in 10.0 mi SSW 3.5 mph - N/A   Clear
9:34 AM 42.8 °F 41.1 °F 24.8 °F 49% 30.27 in 10.0 mi SSW 3.5 mph - N/A   Clear
9:54 AM 46.4 °F 44.3 °F 23.0 °F 40% 30.28 in 10.0 mi SW 4.6 mph - N/A   Clear
10:14 AM 48.2 °F - 21.2 °F 34% 30.28 in 10.0 mi SW 3.5 mph - N/A   Clear
10:34 AM 50.0 °F - 21.2 °F 32% 30.28 in 10.0 mi Calm Calm - N/A   Clear
10:54 AM 50.0 °F - 19.4 °F 30% 30.29 in 10.0 mi Calm Calm - N/A   Clear
11:14 AM 50.0 °F - 19.4 °F 30% 30.29 in 10.0 mi NW 3.5 mph - N/A   Clear
11:34 AM 50.0 °F - 19.4 °F 30% 30.29 in 10.0 mi North 3.5 mph - N/A   Clear
11:54 AM 50.0 °F - 19.4 °F 30% 30.29 in 10.0 mi NNE 4.6 mph - N/A   Clear
12:14 PM 50.0 °F - 19.4 °F 30% 30.29 in 10.0 mi NE 4.6 mph - N/A   Clear
12:34 PM 51.8 °F - 21.2 °F 30% 30.29 in 10.0 mi NE 3.5 mph - N/A   Clear
12:53 PM 51.8 °F - 21.2 °F 30% 30.29 in 10.0 mi NNE 6.9 mph - N/A   Clear
1:14 PM 51.8 °F - 21.2 °F 30% 30.29 in 10.0 mi ENE 3.5 mph - N/A   Clear
1:34 PM 51.8 °F - 21.2 °F 30% 30.29 in 10.0 mi NE 4.6 mph - N/A   Clear
1:54 PM 53.6 °F - 23.0 °F 30% 30.28 in 10.0 mi NW 4.6 mph - N/A   Clear
2:14 PM 53.6 °F - 23.0 °F 30% 30.28 in 10.0 mi North 4.6 mph - N/A   Clear
2:34 PM 53.6 °F - 23.0 °F 30% 30.27 in 10.0 mi NNE 3.5 mph - N/A   Clear
2:54 PM 51.8 °F - 23.0 °F 33% 30.26 in 10.0 mi Calm Calm - N/A   Clear
3:14 PM 53.6 °F - 23.0 °F 30% 30.26 in 10.0 mi Calm Calm - N/A   Clear
3:34 PM 55.4 °F - 23.0 °F 29% 30.26 in 10.0 mi Calm Calm - N/A   Clear
3:53 PM 57.2 °F - 23.0 °F 27% 30.26 in 10.0 mi WSW 4.6 mph - N/A   Clear
4:14 PM 57.2 °F - 21.2 °F 25% 30.26 in 10.0 mi Calm Calm - N/A   Clear
4:34 PM 53.6 °F - 23.0 °F 30% 30.26 in 10.0 mi West 4.6 mph - N/A   Clear
4:54 PM 55.4 °F - 21.2 °F 26% 30.26 in 10.0 mi Calm Calm - N/A   Clear
5:14 PM 55.4 °F - 21.2 °F 26% 30.26 in 10.0 mi SSW 3.5 mph - N/A   Clear
5:34 PM 53.6 °F - 23.0 °F 30% 30.26 in 10.0 mi SSW 4.6 mph - N/A   Clear
5:54 PM 50.0 °F - 28.4 °F 43% 30.27 in 10.0 mi SSE 5.8 mph - N/A   Clear
6:14 PM 51.8 °F - 26.6 °F 38% 30.27 in 10.0 mi SE 3.5 mph - N/A   Clear
6:34 PM 50.0 °F - 28.4 °F 43% 30.27 in 10.0 mi Calm Calm - N/A   Scattered Clouds
6:54 PM 46.4 °F 43.5 °F 30.2 °F 53% 30.28 in 10.0 mi SSE 5.8 mph - N/A   Scattered Clouds
7:14 PM 42.8 °F 38.0 °F 28.4 °F 57% 30.28 in 10.0 mi South 8.1 mph - N/A   Clear
7:34 PM 41.0 °F 35.2 °F 28.4 °F 61% 30.28 in 10.0 mi SSE 9.2 mph - N/A   Clear
7:54 PM 41.0 °F 34.7 °F 28.4 °F 61% 30.28 in 10.0 mi South 10.4 mph - N/A   Clear
8:14 PM 37.4 °F 32.1 °F 26.6 °F 65% 30.28 in 10.0 mi SSW 6.9 mph - N/A   Clear
8:34 PM 37.4 °F 30.3 °F 26.6 °F 65% 30.29 in 10.0 mi SW 10.4 mph - N/A   Clear
8:54 PM 41.0 °F 34.7 °F 23.0 °F 49% 30.28 in 10.0 mi SSW 10.4 mph - N/A   Clear
9:14 PM 42.8 °F 36.2 °F 23.0 °F 46% 30.29 in 10.0 mi SW 12.7 mph - N/A   Clear
9:34 PM 39.2 °F 33.6 °F 23.0 °F 52% 30.29 in 10.0 mi WSW 8.1 mph - N/A   Clear
9:54 PM 42.8 °F 37.5 °F 21.2 °F 42% 30.29 in 10.0 mi SW 9.2 mph - N/A   Clear
10:14 PM 37.4 °F 32.1 °F 24.8 °F 60% 30.30 in 10.0 mi SSW 6.9 mph - N/A   Clear
10:34 PM 37.4 °F 32.8 °F 23.0 °F 56% 30.30 in 10.0 mi SSW 5.8 mph - N/A   Clear
10:54 PM 39.2 °F 33.6 °F 23.0 °F 52% 30.30 in 10.0 mi SSW 8.1 mph - N/A   Clear
11:14 PM 35.6 °F 29.2 °F 23.0 °F 60% 30.31 in 10.0 mi SSW 8.1 mph - N/A   Clear
11:34 PM 37.4 °F 31.4 °F 23.0 °F 56% 30.31 in 10.0 mi SW 8.1 mph - N/A   Clear
11:54 PM 37.4 °F 33.8 °F 21.2 °F 52% 30.31 in 10.0 mi SW 4.6 mph - N/A   Clear